,,,PA_Meas_PMT16A,,PR_Meas_QMR101_102,,RH_Meas_QMH101,,SR_Meas_QMS101,,TA_Meas_QMH101,,GenWind,,GenWind,
date,time,status,PA,status,PR,status,RH,status,SR,status,TA,status,DirAvg,status,SpdAvg,
2011-07-14, 00:00:04,VALID,1003.78,VALID,0,VALID,103.669,VALID,0,VALID,26.7004,VALID,72,VALID,0,
2011-07-14, 00:01:04,VALID,1003.82,VALID,0,VALID,104,VALID,0,VALID,26.6809,VALID,91,VALID,0,
2011-07-14, 00:02:04,VALID,1003.8,VALID,0,VALID,103.409,VALID,0,VALID,26.6809,VALID,74,VALID,0,
2011-07-14, 00:03:04,VALID,1003.81,VALID,0,VALID,103.341,VALID,0,VALID,26.7004,VALID,89,VALID,0,
2011-07-14, 00:04:04,VALID,1003.84,VALID,0,VALID,103.76,VALID,0,VALID,26.7004,VALID,89,VALID,0,
2011-07-14, 00:05:04,VALID,1003.85,VALID,0,VALID,103.905,VALID,0.100563,VALID,26.6614,VALID,99,VALID,0,
2011-07-14, 00:06:04,VALID,1003.85,VALID,0,VALID,103.509,VALID,0.100563,VALID,26.6225,VALID,116,VALID,0,
2011-07-14, 00:07:04,VALID,1003.84,VALID,0,VALID,104,VALID,0.100563,VALID,26.642,VALID,116,VALID,0,
2011-07-14, 00:08:04,VALID,1003.86,VALID,0,VALID,103.829,VALID,0.100563,VALID,26.603,VALID,72,VALID,0,
2011-07-14, 00:09:04,VALID,1003.84,VALID,0,VALID,103.913,VALID,0.100563,VALID,26.603,VALID,85,VALID,0,
2011-07-14, 00:10:04,VALID,1003.83,VALID,0,VALID,104,VALID,0,VALID,26.603,VALID,82,VALID,0,
2011-07-14, 00:11:04,VALID,1003.84,VALID,0,VALID,103.44,VALID,0.100563,VALID,26.642,VALID,81,VALID,0,
2011-07-14, 00:12:04,VALID,1003.85,VALID,0,VALID,103.379,VALID,0.100563,VALID,26.6225,VALID,77,VALID,0,
2011-07-14, 00:13:04,VALID,1003.83,VALID,0,VALID,103.722,VALID,0,VALID,26.6225,VALID,77,VALID,0,
2011-07-14, 00:14:04,VALID,1003.84,VALID,0,VALID,104,VALID,0.100563,VALID,26.603,VALID,77,VALID,0,
2011-07-14, 00:15:04,VALID,1003.83,VALID,0,VALID,104,VALID,0,VALID,26.5661,VALID,77,VALID,0,
2011-07-14, 00:16:04,VALID,1003.81,VALID,0,VALID,104,VALID,0,VALID,26.5466,VALID,82,VALID,0,
2011-07-14, 00:17:04,VALID,1003.8,VALID,0,VALID,104,VALID,0,VALID,26.5466,VALID,73,VALID,0,
2011-07-14, 00:18:04,VALID,1003.76,VALID,0,VALID,104,VALID,0,VALID,26.5466,VALID,87,VALID,0,
2011-07-14, 00:19:04,VALID,1003.79,VALID,0,VALID,104,VALID,0,VALID,26.5271,VALID,87,VALID,0,
2011-07-14, 00:20:04,VALID,1003.76,VALID,0,VALID,104,VALID,0,VALID,26.5056,VALID,86,VALID,0,
2011-07-14, 00:21:04,VALID,1003.77,VALID,0,VALID,104,VALID,0,VALID,26.5271,VALID,61,VALID,0,
2011-07-14, 00:22:04,VALID,1003.71,VALID,0,VALID,104,VALID,0,VALID,26.5271,VALID,87,VALID,0,
2011-07-14, 00:23:04,VALID,1003.72,VALID,0,VALID,104,VALID,0,VALID,26.4881,VALID,67,VALID,0,
2011-07-14, 00:24:04,VALID,1003.73,VALID,0,VALID,104,VALID,0,VALID,26.4881,VALID,79,VALID,0,
2011-07-14, 00:25:04,VALID,1003.73,VALID,0,VALID,104,VALID,0,VALID,26.4667,VALID,64,VALID,0,
2011-07-14, 00:26:04,VALID,1003.69,VALID,0,VALID,104,VALID,0,VALID,26.4881,VALID,360,VALID,0,
2011-07-14, 00:27:04,VALID,1003.68,VALID,0,VALID,104,VALID,0,VALID,26.4687,VALID,52,VALID,0,
2011-07-14, 00:28:04,VALID,1003.67,VALID,0,VALID,104,VALID,0,VALID,26.4492,VALID,29,VALID,0,
2011-07-14, 00:29:04,VALID,1003.66,VALID,0,VALID,104,VALID,0,VALID,26.4297,VALID,29,VALID,0,
2011-07-14, 00:30:04,VALID,1003.67,VALID,0,VALID,104,VALID,0,VALID,26.3887,VALID,29,VALID,0,
2011-07-14, 00:31:04,VALID,1003.65,VALID,0,VALID,104,VALID,0,VALID,26.4102,VALID,66,VALID,0,
2011-07-14, 00:32:04,VALID,1003.65,VALID,0,VALID,104,VALID,0,VALID,26.3887,VALID,63,VALID,0,
2011-07-14, 00:33:04,VALID,1003.67,VALID,0,VALID,104,VALID,0,VALID,26.4102,VALID,71,VALID,0,
2011-07-14, 00:34:04,VALID,1003.65,VALID,0,INVALID,109.284,VALID,0,VALID,26.3907,VALID,69,VALID,0,
2011-07-14, 00:35:04,VALID,1003.63,VALID,0,INVALID,110.169,VALID,0,VALID,26.3713,VALID,6,VALID,0,
2011-07-14, 00:36:04,VALID,1003.63,VALID,0,INVALID,110.047,VALID,0,VALID,26.3303,VALID,4,VALID,0,
2011-07-14, 00:37:04,VALID,1003.62,VALID,0,INVALID,110.703,VALID,0,VALID,26.3323,VALID,2,VALID,0,
2011-07-14, 00:38:04,VALID,1003.62,VALID,0,INVALID,114.273,VALID,0,VALID,26.3323,VALID,27,VALID,0,
2011-07-14, 00:39:04,VALID,1003.62,VALID,0,INVALID,116.012,VALID,0,VALID,26.3128,VALID,45,VALID,0,
2011-07-14, 00:40:04,VALID,1003.61,VALID,0,INVALID,118.385,VALID,0,VALID,26.2933,VALID,2,VALID,0,
2011-07-14, 00:41:04,VALID,1003.63,VALID,0,INVALID,112.77,VALID,0,VALID,26.3323,VALID,34,VALID,0,
2011-07-14, 00:42:04,VALID,1003.62,VALID,0,INVALID,112.289,VALID,0,VALID,26.3518,VALID,5,VALID,0,
2011-07-14, 00:43:04,VALID,1003.65,VALID,0,INVALID,113.525,VALID,0,VALID,26.3713,VALID,17,VALID,0,
2011-07-14, 00:44:04,VALID,1003.65,VALID,0,INVALID,111.29,VALID,0,VALID,26.3518,VALID,33,VALID,0,
2011-07-14, 00:45:04,VALID,1003.64,VALID,0,INVALID,111.282,VALID,0,VALID,26.3498,VALID,28,VALID,0,
2011-07-14, 00:46:04,VALID,1003.65,VALID,0,INVALID,110.039,VALID,0,VALID,26.4102,VALID,37,VALID,0,
2011-07-14, 00:47:04,VALID,1003.64,VALID,0,VALID,104,VALID,0,VALID,26.3887,VALID,359,VALID,0,
2011-07-14, 00:48:04,VALID,1003.63,VALID,0,VALID,104,VALID,0,VALID,26.4492,VALID,26,VALID,0,
2011-07-14, 00:49:04,VALID,1003.62,VALID,0,VALID,104,VALID,0,VALID,26.4472,VALID,5,VALID,0,
2011-07-14, 00:50:04,VALID,1003.65,VALID,0,VALID,104,VALID,0,VALID,26.4881,VALID,5,VALID,0,
2011-07-14, 00:51:04,VALID,1003.65,VALID,0,VALID,104,VALID,0,VALID,26.4881,VALID,19,VALID,0,
2011-07-14, 00:52:04,VALID,1003.67,VALID,0,VALID,104,VALID,0,VALID,26.5076,VALID,39,VALID,0,
2011-07-14, 00:53:04,VALID,1003.65,VALID,0,VALID,104,VALID,0,VALID,26.4861,VALID,40,VALID,0,
2011-07-14, 00:54:04,VALID,1003.64,VALID,0,VALID,104,VALID,0,VALID,26.5076,VALID,40,VALID,0,
2011-07-14, 00:55:04,VALID,1003.63,VALID,0,VALID,104,VALID,0,VALID,26.4881,VALID,40,VALID,0,
2011-07-14, 00:56:04,VALID,1003.62,VALID,0,VALID,104,VALID,0,VALID,26.4687,VALID,23,VALID,0,
2011-07-14, 00:57:04,VALID,1003.61,VALID,0,VALID,104,VALID,0,VALID,26.4687,VALID,26,VALID,0,
2011-07-14, 00:58:04,VALID,1003.58,VALID,0,VALID,104,VALID,0,VALID,26.4687,VALID,15,VALID,0,
2011-07-14, 00:59:04,VALID,1003.57,VALID,0,VALID,104,VALID,0,VALID,26.5076,VALID,354,VALID,0,
2011-07-14, 01:00:04,VALID,1003.53,VALID,0,VALID,104,VALID,0.100563,VALID,26.5251,VALID,23,VALID,0,
2011-07-14, 01:01:04,VALID,1003.52,VALID,0,VALID,104,VALID,0.100563,VALID,26.5641,VALID,57,VALID,0,
2011-07-14, 01:02:04,VALID,1003.54,VALID,0,VALID,104,VALID,0.100563,VALID,26.5641,VALID,9,VALID,0,
2011-07-14, 01:03:04,VALID,1003.52,VALID,0,VALID,104,VALID,0.100563,VALID,26.5446,VALID,11,VALID,0,
2011-07-14, 01:04:04,VALID,1003.49,VALID,0,VALID,104,VALID,0.100563,VALID,26.5036,VALID,12,VALID,0,
2011-07-14, 01:05:04,VALID,1003.53,VALID,0,VALID,104,VALID,0.100563,VALID,26.5036,VALID,91,VALID,0,
2011-07-14, 01:06:04,VALID,1003.51,VALID,0,VALID,103.295,VALID,0.100563,VALID,26.601,VALID,39,VALID,0,
2011-07-14, 01:07:04,VALID,1003.5,VALID,0,VALID,102.769,VALID,0.100563,VALID,26.642,VALID,34,VALID,0,
2011-07-14, 01:08:04,VALID,1003.53,VALID,0,VALID,101.899,VALID,0,VALID,26.6789,VALID,40,VALID,0,
2011-07-14, 01:09:04,VALID,1003.56,VALID,0,VALID,101.624,VALID,0.100563,VALID,26.7589,VALID,60,VALID,0,
2011-07-14, 01:10:04,VALID,1003.54,VALID,0,VALID,101.716,VALID,0.100563,VALID,26.7589,VALID,24,VALID,0,
2011-07-14, 01:11:04,VALID,1003.55,VALID,0,VALID,101.868,VALID,0.100563,VALID,26.7394,VALID,90,VALID,0,
2011-07-14, 01:12:04,VALID,1003.54,VALID,0,VALID,100.854,VALID,0,VALID,26.7783,VALID,85,VALID,0,
2011-07-14, 01:13:04,VALID,1003.55,VALID,0,VALID,101.144,VALID,0.100563,VALID,26.7783,VALID,54,VALID,0,
2011-07-14, 01:14:04,VALID,1003.57,VALID,0,VALID,100.793,VALID,0.100563,VALID,26.7568,VALID,10,VALID,0,
2011-07-14, 01:15:04,VALID,1003.57,VALID,0,VALID,101.594,VALID,0,VALID,26.7804,VALID,33,VALID,0,
2011-07-14, 01:16:04,VALID,1003.55,VALID,0,VALID,101.518,VALID,0,VALID,26.7824,VALID,44,VALID,0,
2011-07-14, 01:17:04,VALID,1003.54,VALID,0,VALID,101.815,VALID,0,VALID,26.7609,VALID,58,VALID,0,
2011-07-14, 01:18:04,VALID,1003.55,VALID,0,VALID,101.693,VALID,0,VALID,26.7609,VALID,15,VALID,0,
2011-07-14, 01:19:04,VALID,1003.51,VALID,0,VALID,103.028,VALID,0,VALID,26.7219,VALID,17,VALID,0,
2011-07-14, 01:20:04,VALID,1003.51,VALID,0,VALID,102.753,VALID,0,VALID,26.6635,VALID,24,VALID,0,
2011-07-14, 01:21:04,VALID,1003.49,VALID,0,VALID,102.723,VALID,0,VALID,26.6245,VALID,2,VALID,0,
2011-07-14, 01:22:04,VALID,1003.44,VALID,0,VALID,103.471,VALID,0,VALID,26.603,VALID,10,VALID,0,
2011-07-14, 01:23:04,VALID,1003.42,VALID,0,VALID,103.921,VALID,0,VALID,26.603,VALID,49,VALID,0,
2011-07-14, 01:24:04,VALID,1003.43,VALID,0,VALID,103.806,VALID,0,VALID,26.607,VALID,7,VALID,0,
2011-07-14, 01:25:04,VALID,1003.43,VALID,0,VALID,104,VALID,0,VALID,26.5661,VALID,32,VALID,0,
2011-07-14, 01:26:04,VALID,1003.44,VALID,0,VALID,104,VALID,0,VALID,26.5681,VALID,22,VALID,0,
2011-07-14, 01:27:04,VALID,1003.42,VALID,0,VALID,102.593,VALID,0,VALID,26.6265,VALID,1,VALID,0,
2011-07-14, 01:28:04,VALID,1003.43,VALID,0,VALID,102.319,VALID,0,VALID,26.7219,VALID,38,VALID,0,
2011-07-14, 01:29:04,VALID,1003.45,VALID,0,VALID,101.563,VALID,0,VALID,26.7609,VALID,71,VALID,0,
2011-07-14, 01:30:04,VALID,1003.43,VALID,0,VALID,101.54,VALID,0,VALID,26.7978,VALID,12,VALID,0,
2011-07-14, 01:31:04,VALID,1003.45,VALID,0,VALID,101.556,VALID,0.100563,VALID,26.8193,VALID,31,VALID,0,
2011-07-14, 01:32:04,VALID,1003.41,VALID,0,VALID,101.693,VALID,0.100563,VALID,26.7568,VALID,1,VALID,0,
2011-07-14, 01:33:04,VALID,1003.45,VALID,0,VALID,101.449,VALID,0,VALID,26.7783,VALID,347,VALID,0,
2011-07-14, 01:34:04,VALID,1003.44,VALID,0,VALID,100.922,VALID,0,VALID,26.7783,VALID,22,VALID,0,
2011-07-14, 01:35:04,VALID,1003.48,VALID,0,VALID,101.006,VALID,0,VALID,26.7998,VALID,59,VALID,0,
2011-07-14, 01:36:04,VALID,1003.49,VALID,0,VALID,100.312,VALID,0.100563,VALID,26.7978,VALID,96,VALID,0,
2011-07-14, 01:37:04,VALID,1003.49,VALID,0,VALID,100.32,VALID,0,VALID,26.8973,VALID,20,VALID,0,
2011-07-14, 01:38:04,VALID,1003.48,VALID,0,VALID,99.328,VALID,0.100563,VALID,26.9342,VALID,88,VALID,0,
2011-07-14, 01:39:04,VALID,1003.52,VALID,0,VALID,98.9847,VALID,0,VALID,26.9926,VALID,52,VALID,0,
2011-07-14, 01:40:04,VALID,1003.52,VALID,0,VALID,98.5346,VALID,0,VALID,27.0121,VALID,92,VALID,0,
2011-07-14, 01:41:04,VALID,1003.51,VALID,0,VALID,98.5041,VALID,0,VALID,27.0511,VALID,30,VALID,0,
2011-07-14, 01:42:04,VALID,1003.53,VALID,0,VALID,98.5041,VALID,0.100563,VALID,27.0316,VALID,39,VALID,0,
2011-07-14, 01:43:04,VALID,1003.53,VALID,0,VALID,98.2218,VALID,0,VALID,27.0316,VALID,96,VALID,0,
2011-07-14, 01:44:04,VALID,1003.52,VALID,0,VALID,98.3592,VALID,0.100563,VALID,27.0316,VALID,75,VALID,0,
2011-07-14, 01:45:04,VALID,1003.51,VALID,0,VALID,98.199,VALID,0.100563,VALID,27.0101,VALID,37,VALID,0,
2011-07-14, 01:46:04,VALID,1003.46,VALID,0,VALID,98.1684,VALID,0,VALID,27.0531,VALID,43,VALID,0,
2011-07-14, 01:47:04,VALID,1003.45,VALID,0,VALID,98.3286,VALID,0.100563,VALID,27.0316,VALID,48,VALID,0,
2011-07-14, 01:48:04,VALID,1003.46,VALID,0,VALID,98.7711,VALID,0,VALID,27.0336,VALID,36,VALID,0,
2011-07-14, 01:49:04,VALID,1003.44,VALID,0,VALID,99.1983,VALID,0,VALID,26.9926,VALID,34,VALID,0,
2011-07-14, 01:50:04,VALID,1003.45,VALID,0,VALID,99.534,VALID,0.100563,VALID,26.9537,VALID,88,VALID,0,
2011-07-14, 01:51:04,VALID,1003.43,VALID,0,VALID,99.7476,VALID,0.100563,VALID,26.9147,VALID,18,VALID,0,
2011-07-14, 01:52:04,VALID,1003.45,VALID,0,VALID,99.595,VALID,0.100563,VALID,26.9342,VALID,34,VALID,0,
2011-07-14, 01:53:04,VALID,1003.42,VALID,0,VALID,99.8849,VALID,0,VALID,26.9147,VALID,51,VALID,0,
2011-07-14, 01:54:04,VALID,1003.45,VALID,0,VALID,100.442,VALID,0.100563,VALID,26.8952,VALID,63,VALID,0,
2011-07-14, 01:55:04,VALID,1003.45,VALID,0,VALID,100.289,VALID,0,VALID,26.8952,VALID,82,VALID,0,
2011-07-14, 01:56:04,VALID,1003.48,VALID,0,VALID,100.167,VALID,0,VALID,26.9362,VALID,40,VALID,0,
2011-07-14, 01:57:04,VALID,1003.46,VALID,0,VALID,99.9002,VALID,0.100563,VALID,26.9342,VALID,70,VALID,0,
2011-07-14, 01:58:04,VALID,1003.44,VALID,0,VALID,99.8926,VALID,0.100563,VALID,26.9342,VALID,102,VALID,0,
2011-07-14, 01:59:04,VALID,1003.44,VALID,0,VALID,100.167,VALID,0.100563,VALID,26.9342,VALID,4,VALID,0,
2011-07-14, 02:00:04,VALID,1003.42,VALID,0,VALID,100.251,VALID,0,VALID,26.8973,VALID,76,VALID,0,
2011-07-14, 02:01:04,VALID,1003.38,VALID,0,VALID,100.755,VALID,0,VALID,26.8583,VALID,38,VALID,0,
2011-07-14, 02:02:04,VALID,1003.36,VALID,0,VALID,100.732,VALID,0,VALID,26.8563,VALID,83,VALID,0,
2011-07-14, 02:03:04,VALID,1003.38,VALID,0,VALID,101.327,VALID,0,VALID,26.8388,VALID,64,VALID,0,
2011-07-14, 02:04:04,VALID,1003.41,VALID,0,VALID,101.456,VALID,0,VALID,26.7804,VALID,27,VALID,0,
2011-07-14, 02:05:04,VALID,1003.42,VALID,0,VALID,101.586,VALID,0,VALID,26.7804,VALID,91,VALID,0,
2011-07-14, 02:06:04,VALID,1003.41,VALID,0,VALID,101.624,VALID,0,VALID,26.7609,VALID,107,VALID,0,
2011-07-14, 02:07:04,VALID,1003.43,VALID,0,VALID,101.586,VALID,0,VALID,26.8019,VALID,100,VALID,0,
2011-07-14, 02:08:04,VALID,1003.43,VALID,0,VALID,101.395,VALID,0,VALID,26.7804,VALID,92,VALID,0,
2011-07-14, 02:09:04,VALID,1003.42,VALID,0,VALID,101.579,VALID,0,VALID,26.7609,VALID,347,VALID,0,
2011-07-14, 02:10:04,VALID,1003.4,VALID,0,VALID,101.235,VALID,0,VALID,26.7804,VALID,80,VALID,0,
2011-07-14, 02:11:04,VALID,1003.41,VALID,0,VALID,101.899,VALID,0,VALID,26.7609,VALID,89,VALID,0,
2011-07-14, 02:12:04,VALID,1003.39,VALID,0,VALID,101.922,VALID,0,VALID,26.7414,VALID,88,VALID,0,
2011-07-14, 02:13:04,VALID,1003.37,VALID,0,VALID,102.265,VALID,0,VALID,26.7024,VALID,98,VALID,0,
2011-07-14, 02:14:04,VALID,1003.36,VALID,0,VALID,102.364,VALID,0,VALID,26.7239,VALID,87,VALID,0,
2011-07-14, 02:15:04,VALID,1003.34,VALID,0,VALID,102.204,VALID,0.100563,VALID,26.7199,VALID,82,VALID,0,
2011-07-14, 02:16:04,VALID,1003.31,VALID,0,VALID,102.097,VALID,0,VALID,26.7219,VALID,111,VALID,0,
2011-07-14, 02:17:04,VALID,1003.27,VALID,0,VALID,102.303,VALID,0.100563,VALID,26.7199,VALID,78,VALID,0,
2011-07-14, 02:18:04,VALID,1003.25,VALID,0,VALID,102.494,VALID,0,VALID,26.7199,VALID,45,VALID,0,
2011-07-14, 02:19:04,VALID,1003.21,VALID,0,VALID,102.837,VALID,0,VALID,26.7004,VALID,30,VALID,0,
2011-07-14, 02:20:04,VALID,1003.21,VALID,0,VALID,102.998,VALID,0,VALID,26.6614,VALID,31,VALID,0,
2011-07-14, 02:21:04,VALID,1003.18,VALID,0,VALID,103.379,VALID,0.100563,VALID,26.642,VALID,33,VALID,0,
2011-07-14, 02:22:04,VALID,1003.15,VALID,0,VALID,103.257,VALID,0,VALID,26.601,VALID,31,VALID,0,
2011-07-14, 02:23:04,VALID,1003.16,VALID,0,VALID,103.516,VALID,0.100563,VALID,26.601,VALID,36,VALID,0,
2011-07-14, 02:24:04,VALID,1003.13,VALID,0,VALID,102.967,VALID,0,VALID,26.6635,VALID,63,VALID,0,
2011-07-14, 02:25:04,VALID,1003.1,VALID,0,VALID,102.532,VALID,0,VALID,26.683,VALID,43,VALID,0,
2011-07-14, 02:26:04,VALID,1003.08,VALID,0,VALID,102.25,VALID,0,VALID,26.642,VALID,60,VALID,0,
2011-07-14, 02:27:04,VALID,1003.09,VALID,0,VALID,102.685,VALID,0,VALID,26.642,VALID,82,VALID,0,
2011-07-14, 02:28:04,VALID,1003.04,VALID,0,VALID,102.746,VALID,0,VALID,26.642,VALID,17,VALID,0,
2011-07-14, 02:29:04,VALID,1003.03,VALID,0,VALID,102.616,VALID,0.100563,VALID,26.642,VALID,60,VALID,0,
2011-07-14, 02:30:04,VALID,1003,VALID,0,VALID,103.013,VALID,0,VALID,26.6225,VALID,17,VALID,0,
2011-07-14, 02:31:04,VALID,1003.01,VALID,0,VALID,103.455,VALID,0,VALID,26.603,VALID,40,VALID,0,
2011-07-14, 02:32:04,VALID,1002.97,VALID,0,VALID,103.669,VALID,0.100563,VALID,26.603,VALID,50,VALID,0,
2011-07-14, 02:33:04,VALID,1002.96,VALID,0,VALID,103.478,VALID,0.100563,VALID,26.603,VALID,81,VALID,0,
2011-07-14, 02:34:04,VALID,1002.91,VALID,0,VALID,102.959,VALID,0.100563,VALID,26.6225,VALID,106,VALID,0,
2011-07-14, 02:35:04,VALID,1002.93,VALID,0,VALID,103.028,VALID,0.100563,VALID,26.642,VALID,81,VALID,0,
2011-07-14, 02:36:04,VALID,1002.86,VALID,0,VALID,102.433,VALID,0,VALID,26.6614,VALID,127,VALID,0,
2011-07-14, 02:37:04,VALID,1002.86,VALID,0,VALID,102.158,VALID,0.100563,VALID,26.7199,VALID,46,VALID,0,
2011-07-14, 02:38:04,VALID,1002.87,VALID,0,VALID,102.029,VALID,0.100563,VALID,26.7004,VALID,47,VALID,0,
2011-07-14, 02:39:04,VALID,1002.91,VALID,0,VALID,102.555,VALID,0,VALID,26.7024,VALID,2,VALID,0,
2011-07-14, 02:40:04,VALID,1002.94,VALID,0,VALID,102.265,VALID,0.100563,VALID,26.7004,VALID,63,VALID,0,
2011-07-14, 02:41:04,VALID,1003.01,VALID,0,VALID,102.067,VALID,0,VALID,26.7394,VALID,71,VALID,0,
2011-07-14, 02:42:04,VALID,1003.06,VALID,0,VALID,101.594,VALID,0.100563,VALID,26.7978,VALID,25,VALID,0,
2011-07-14, 02:43:04,VALID,1003.11,VALID,0,VALID,101.327,VALID,0.100563,VALID,26.8193,VALID,80,VALID,0,
2011-07-14, 02:44:04,VALID,1003.15,VALID,0,VALID,101.624,VALID,0.100563,VALID,26.7978,VALID,40,VALID,0,
2011-07-14, 02:45:04,VALID,1003.21,VALID,0,VALID,102.006,VALID,0.100563,VALID,26.7978,VALID,93,VALID,0,
2011-07-14, 02:46:04,VALID,1003.25,VALID,0,VALID,101.96,VALID,0,VALID,26.7763,VALID,67,VALID,0,
2011-07-14, 02:47:04,VALID,1003.27,VALID,0,VALID,101.617,VALID,0.100563,VALID,26.7783,VALID,50,VALID,0,
2011-07-14, 02:48:04,VALID,1003.27,VALID,0,VALID,101.518,VALID,0,VALID,26.7998,VALID,125,VALID,0,
2011-07-14, 02:49:04,VALID,1003.28,VALID,0,VALID,101.441,VALID,0.100563,VALID,26.7958,VALID,79,VALID,0,
2011-07-14, 02:50:04,VALID,1003.3,VALID,0,VALID,101.22,VALID,0.100563,VALID,26.8368,VALID,87,VALID,0,
2011-07-14, 02:51:04,VALID,1003.29,VALID,0,VALID,101.22,VALID,0,VALID,26.7978,VALID,85,VALID,0,
2011-07-14, 02:52:04,VALID,1003.29,VALID,0,VALID,101.579,VALID,0.100563,VALID,26.8368,VALID,64,VALID,0,
2011-07-14, 02:53:04,VALID,1003.27,VALID,0,VALID,101.434,VALID,0.100563,VALID,26.7978,VALID,105,VALID,0,
2011-07-14, 02:54:04,VALID,1003.26,VALID,0,VALID,101.441,VALID,0.100563,VALID,26.8193,VALID,78,VALID,0,
2011-07-14, 02:55:04,VALID,1003.21,VALID,0,VALID,101.731,VALID,0.100563,VALID,26.7978,VALID,65,VALID,0,
2011-07-14, 02:56:04,VALID,1003.18,VALID,0,VALID,101.54,VALID,0,VALID,26.7568,VALID,87,VALID,0,
2011-07-14, 02:57:04,VALID,1003.2,VALID,0,VALID,101.289,VALID,0.100563,VALID,26.8347,VALID,89,VALID,0,
2011-07-14, 02:58:04,VALID,1003.15,VALID,0,VALID,101.464,VALID,0,VALID,26.8563,VALID,75,VALID,0,
2011-07-14, 02:59:04,VALID,1003.13,VALID,0,VALID,101.395,VALID,0.100563,VALID,26.8368,VALID,86,VALID,0,
2011-07-14, 03:00:04,VALID,1003.08,VALID,0,VALID,101.251,VALID,0.100563,VALID,26.8368,VALID,23,VALID,0,
2011-07-14, 03:01:04,VALID,1003.08,VALID,0,VALID,102.349,VALID,0,VALID,26.7978,VALID,68,VALID,0,
2011-07-14, 03:02:04,VALID,1003.06,VALID,0,VALID,102.975,VALID,0.100563,VALID,26.7394,VALID,92,VALID,0,
2011-07-14, 03:03:04,VALID,1003.06,VALID,0,VALID,103.097,VALID,0,VALID,26.6984,VALID,92,VALID,0,
2011-07-14, 03:04:04,VALID,1003.04,VALID,0,VALID,103.661,VALID,0.100563,VALID,26.6399,VALID,42,VALID,0,
2011-07-14, 03:05:04,VALID,1003.02,VALID,0,VALID,104,VALID,0,VALID,26.6614,VALID,32,VALID,0,
2011-07-14, 03:06:04,VALID,1003,VALID,0,VALID,104,VALID,0.100563,VALID,26.6225,VALID,39,VALID,0,
2011-07-14, 03:07:04,VALID,1003,VALID,0,VALID,104,VALID,0.100563,VALID,26.603,VALID,21,VALID,0,
2011-07-14, 03:08:04,VALID,1003,VALID,0,VALID,104,VALID,0.100563,VALID,26.5835,VALID,39,VALID,0,
2011-07-14, 03:09:04,VALID,1003.02,VALID,0,VALID,104,VALID,0.100563,VALID,26.5815,VALID,38,VALID,0,
2011-07-14, 03:10:04,VALID,1003.02,VALID,0,VALID,104,VALID,0.100563,VALID,26.605,VALID,68,VALID,0,
2011-07-14, 03:11:04,VALID,1003.04,VALID,0,VALID,104,VALID,0.100563,VALID,26.5835,VALID,52,VALID,0,
2011-07-14, 03:12:04,VALID,1003.08,VALID,0,VALID,104,VALID,0,VALID,26.5815,VALID,72,VALID,0,
2011-07-14, 03:13:04,VALID,1003.13,VALID,0,VALID,104,VALID,0,VALID,26.5815,VALID,73,VALID,0,
2011-07-14, 03:14:04,VALID,1003.1,VALID,0,VALID,104,VALID,0,VALID,26.603,VALID,98,VALID,0,
2011-07-14, 03:15:04,VALID,1003.09,VALID,0,VALID,104,VALID,0.100563,VALID,26.6225,VALID,108,VALID,0,
2011-07-14, 03:16:04,VALID,1003.07,VALID,0,VALID,104,VALID,0,VALID,26.562,VALID,75,VALID,0,
2011-07-14, 03:17:04,VALID,1003.07,VALID,0,VALID,104,VALID,0.100563,VALID,26.5835,VALID,74,VALID,0,
2011-07-14, 03:18:04,VALID,1003.06,VALID,0,VALID,104,VALID,0,VALID,26.605,VALID,107,VALID,0,
2011-07-14, 03:19:04,VALID,1003.01,VALID,0,VALID,104,VALID,0,VALID,26.6225,VALID,102,VALID,0,
2011-07-14, 03:20:04,VALID,1002.99,VALID,0,VALID,103.982,VALID,0,VALID,26.683,VALID,55,VALID,0,
2011-07-14, 03:21:04,VALID,1002.96,VALID,0,VALID,103.783,VALID,0,VALID,26.6809,VALID,91,VALID,0,
2011-07-14, 03:22:04,VALID,1002.93,VALID,0,VALID,103.501,VALID,0,VALID,26.6809,VALID,27,VALID,0,
2011-07-14, 03:23:04,VALID,1002.89,VALID,0,VALID,103.455,VALID,0,VALID,26.7004,VALID,65,VALID,0,
2011-07-14, 03:24:04,VALID,1002.86,VALID,0,VALID,103.265,VALID,0,VALID,26.7004,VALID,45,VALID,0,
2011-07-14, 03:25:04,VALID,1002.85,VALID,0,VALID,103.333,VALID,0,VALID,26.7024,VALID,61,VALID,0,
2011-07-14, 03:26:04,VALID,1002.83,VALID,0,VALID,103.539,VALID,0,VALID,26.6614,VALID,31,VALID,0,
2011-07-14, 03:27:04,VALID,1002.79,VALID,0,VALID,103.562,VALID,0,VALID,26.6809,VALID,14,VALID,0,
2011-07-14, 03:28:04,VALID,1002.82,VALID,0,VALID,103.821,VALID,0,VALID,26.683,VALID,25,VALID,0,
2011-07-14, 03:29:04,VALID,1002.82,VALID,0,VALID,103.829,VALID,0,VALID,26.683,VALID,35,VALID,0,
2011-07-14, 03:30:04,VALID,1002.83,VALID,0,VALID,104,VALID,0,VALID,26.642,VALID,77,VALID,0,
2011-07-14, 03:31:04,VALID,1002.85,VALID,0,VALID,104,VALID,0,VALID,26.683,VALID,21,VALID,0,
2011-07-14, 03:32:04,VALID,1002.89,VALID,0,VALID,104,VALID,0,VALID,26.6614,VALID,80,VALID,0,
2011-07-14, 03:33:04,VALID,1002.9,VALID,0,VALID,104,VALID,0,VALID,26.642,VALID,50,VALID,0,
2011-07-14, 03:34:04,VALID,1002.95,VALID,0,VALID,104,VALID,0,VALID,26.7024,VALID,57,VALID,0,
2011-07-14, 03:35:04,VALID,1002.95,VALID,0,VALID,104,VALID,0,VALID,26.6809,VALID,95,VALID,0,
2011-07-14, 03:36:04,VALID,1002.97,VALID,0,VALID,104,VALID,0,VALID,26.7024,VALID,105,VALID,0,
2011-07-14, 03:37:04,VALID,1003,VALID,0,VALID,103.913,VALID,0,VALID,26.7219,VALID,96,VALID,0,
2011-07-14, 03:38:04,VALID,1003.06,VALID,0,VALID,103.966,VALID,0.100563,VALID,26.7199,VALID,81,VALID,0,
2011-07-14, 03:39:04,VALID,1003.02,VALID,0,VALID,103.417,VALID,0,VALID,26.7414,VALID,81,VALID,0,
2011-07-14, 03:40:04,VALID,1003.05,VALID,0,VALID,102.761,VALID,0,VALID,26.7998,VALID,86,VALID,0,
2011-07-14, 03:41:04,VALID,1003.07,VALID,0,VALID,101.838,VALID,0,VALID,26.8347,VALID,113,VALID,0,
2011-07-14, 03:42:04,VALID,1003.06,VALID,0,VALID,101.67,VALID,0,VALID,26.9167,VALID,128,VALID,0,
2011-07-14, 03:43:04,VALID,1003.07,VALID,0,VALID,101.594,VALID,0,VALID,26.8757,VALID,83,VALID,0,
2011-07-14, 03:44:04,VALID,1003.12,VALID,0,VALID,101.434,VALID,0,VALID,26.9167,VALID,87,VALID,0,
2011-07-14, 03:45:04,VALID,1003.09,VALID,0,VALID,101.807,VALID,0,VALID,26.8563,VALID,21,VALID,0,
2011-07-14, 03:46:04,VALID,1003.11,VALID,0,VALID,101.701,VALID,0,VALID,26.8973,VALID,104,VALID,0,
2011-07-14, 03:47:04,VALID,1003.11,VALID,0,VALID,101.09,VALID,0,VALID,26.9147,VALID,93,VALID,0,
2011-07-14, 03:48:04,VALID,1003.07,VALID,0,VALID,101.426,VALID,0,VALID,26.9383,VALID,31,VALID,0,
2011-07-14, 03:49:04,VALID,1003.08,VALID,0,VALID,101.029,VALID,0,VALID,26.9167,VALID,98,VALID,0,
2011-07-14, 03:50:04,VALID,1003.07,VALID,0,VALID,101.334,VALID,0,VALID,26.8757,VALID,57,VALID,0,
2011-07-14, 03:51:04,VALID,1003.05,VALID,0,VALID,101.38,VALID,0,VALID,26.8563,VALID,69,VALID,0,
2011-07-14, 03:52:04,VALID,1003.05,VALID,0,VALID,101.701,VALID,0,VALID,26.8563,VALID,80,VALID,0,
2011-07-14, 03:53:04,VALID,1003.01,VALID,0,VALID,102.28,VALID,0,VALID,26.8173,VALID,48,VALID,0,
2011-07-14, 03:54:04,VALID,1003,VALID,0,VALID,101.823,VALID,0,VALID,26.8173,VALID,88,VALID,0,
2011-07-14, 03:55:04,VALID,1002.99,VALID,0,VALID,101.968,VALID,0,VALID,26.7978,VALID,80,VALID,0,
2011-07-14, 03:56:04,VALID,1003.01,VALID,0,VALID,102.135,VALID,0,VALID,26.8173,VALID,85,VALID,0,
2011-07-14, 03:57:04,VALID,1003.02,VALID,0,VALID,101.952,VALID,0,VALID,26.7978,VALID,81,VALID,0,
2011-07-14, 03:58:04,VALID,1003.02,VALID,0,VALID,102.441,VALID,0,VALID,26.8193,VALID,71,VALID,0,
2011-07-14, 03:59:04,VALID,1002.99,VALID,0,VALID,102.715,VALID,0,VALID,26.7394,VALID,58,VALID,0,